Wind_Speed
14 9 16 21 25 18 18 15 16 17 18 18 16 15 14 12 11 11 11 9 9 9 8 8 8 7 6 6 5 5 5 6 6
21 19 15 8 12 22 20 20 18 18 21 21 20 19 18 17 16 14 14 12 12 11 11 10 10 8 7 7 7 6 5 5 5
13 16 21 19 18 17 23 20 22 22 20 21 22 21 21 20 20 19 18 18 17 15 14 13 12 11 10 10 8 8 7 6 5
14 12 12 15 17 20 22 24 24 23 24 23 23 23 24 24 23 25 24 23 21 20 19 18 17 15 15 14 12 11 10 9 8
10 9 10 12 16 18 19 22 23 24 24 26 26 25 26 26 28 29 27 26 25 25 24 23 21 20 19 17 16 15 14 13 12
13 14 14 12 12 13 17 21 22 22 21 23 26 27 28 29 28 31 29 29 29 29 29 27 26 25 24 22 20 19 18 17 15
16 16 17 17 16 15 15 15 20 24 26 24 23 24 28 30 30 33 31 32 33 33 32 32 32 30 29 27 26 24 23 22 20
19 19 19 19 18 18 19 19 20 19 21 27 30 30 28 28 30 33 34 35 34 35 36 36 35 35 34 34 32 30 30 27 27
23 23 22 22 22 22 22 23 23 23 24 23 23 25 27 29 32 29 32 35 36 38 38 39 40 39 38 38 38 37 36 34 33
29 28 28 27 26 27 27 27 27 27 27 27 28 28 28 28 28 27 34 35 35 36 38 41 42 42 41 40 41 41 41 40 39
33 33 33 33 33 32 32 31 32 32 32 32 32 32 32 32 33 33 31 32 31 38 38 38 40 42 44 44 44 43 43 44 44
37 37 37 37 37 38 38 37 37 37 37 37 37 37 37 36 36 36 36 37 38 36 34 39 39 41 42 42 44 45 46 45 44
41 42 43 43 43 43 43 44 44 43 43 42 42 42 42 42 42 41 40 41 41 42 42 43 40 42 40 40 45 44 43 45 45
47 47 48 48 49 49 49 49 50 50 50 50 49 48 48 48 47 47 46 46 46 46 45 46 47 47 47 46 45 44 45 47 46
52 52 53 53 53 54 54 55 55 55 55 56 57 56 55 54 54 53 52 52 51 51 51 51 50 49 50 51 49 45 47 47 47
56 57 58 59 59 59 60 60 60 60 60 60 61 62 62 62 61 60 59 57 56 56 56 56 56 56 54 53 52 53 54 53 53
60 60 61 62 63 63 64 65 65 65 65 66 65 66 67 66 67 67 66 65 63 62 61 61 61 61 61 60 57 57 56 57 57
65 66 66 66 67 67 68 68 69 70 70 69 70 70 71 71 71 72 72 71 70 69 68 67 67 66 65 65 64 63 62 61 59
66 66 67 68 69 70 71 71 72 73 73 74 74 75 75 75 75 74 75 76 77 76 74 73 73 72 70 69 68 69 68 67 65
69 69 69 70 71 73 73 74 75 75 75 75 77 77 77 79 80 80 80 80 81 81 81 80 78 77 75 74 73 73 73 72 71
Wind_Direction
228 220 237 240 230 235 238 232 236 231 226 219 213 211 207 209 210 207 206 204 203 207 204 191 189 189 182 180 169 162 156 146 138
247 240 240 247 247 234 241 240 235 236 235 230 226 222 218 212 214 217 221 215 215 214 212 205 200 194 195 193 195 194 192 170 165
249 243 244 250 252 246 237 241 238 236 237 237 236 234 230 226 225 222 225 225 224 224 226 226 220 220 218 213 211 207 207 208 194
244 239 244 245 245 246 242 241 243 241 237 239 240 239 238 235 230 230 228 229 230 230 231 233 231 229 231 230 226 228 226 225 226
234 235 245 250 249 248 250 249 248 243 241 241 242 244 245 240 239 239 235 236 236 236 234 234 238 236 237 236 239 238 235 237 238
257 260 258 252 253 260 256 251 248 249 249 249 246 245 246 248 245 246 242 242 242 242 242 240 238 240 239 242 243 244 246 244 243
263 260 260 263 263 257 251 254 253 252 253 252 252 249 248 249 249 251 249 248 245 246 246 248 247 243 245 244 243 247 247 250 251
259 260 259 260 261 262 259 255 256 259 259 257 254 254 251 252 250 250 251 251 251 251 250 250 250 254 252 250 250 249 250 250 252
258 259 260 263 264 263 262 261 261 260 260 261 257 259 260 258 252 255 253 252 252 250 252 252 252 251 250 252 255 254 254 253 254
254 258 261 260 259 261 262 262 263 263 261 260 259 260 260 259 257 259 258 261 258 256 254 252 253 254 254 254 252 251 252 253 253
256 258 260 263 264 263 261 260 259 259 260 261 260 259 258 258 260 260 255 255 262 263 258 254 255 256 256 256 255 255 255 256 255
264 264 264 265 266 267 267 265 262 260 259 257 257 259 260 260 259 258 259 258 254 254 259 259 260 258 255 256 257 257 256 255 256
264 265 266 267 267 267 267 268 269 267 264 261 259 258 258 258 259 260 260 259 258 257 255 253 256 264 262 264 257 256 257 255 256
265 265 265 266 266 266 266 266 266 267 268 268 265 262 260 259 259 258 258 259 260 260 259 257 255 254 253 259 265 263 259 259 258
265 266 266 266 265 265 265 265 265 265 265 265 266 266 265 264 262 260 259 257 257 258 259 259 259 255 254 254 251 255 261 264 265
263 262 262 262 263 263 264 265 265 266 265 265 265 265 264 265 264 263 261 259 258 256 256 257 258 258 257 255 254 254 252 250 254
265 265 264 264 263 263 262 262 262 262 264 264 265 265 265 265 264 263 263 263 261 258 257 256 256 257 257 257 256 255 254 255 254
267 267 268 268 268 267 267 266 265 264 262 263 264 264 264 264 265 265 264 262 262 262 261 259 257 256 256 257 256 256 256 255 254
269 269 269 269 268 267 267 267 267 267 267 265 263 262 262 262 261 263 265 265 265 262 261 260 260 259 258 256 255 255 255 254 254
270 270 269 269 270 270 270 270 270 269 267 266 266 265 263 261 260 259 260 261 262 263 264 262 261 260 259 258 257 255 254 254 254
Height
5829 5829 5832 5832 5833 5835 5837 5839 5841 5843 5844 5845 5846 5848 5849 5850 5852 5853 5853 5854 5856 5856 5857 5857 5858 5859 5860 5860 5861 5862 5861 5862 5862
5828 5828 5829 5830 5832 5833 5835 5836 5838 5840 5842 5843 5844 5846 5847 5848 5850 5851 5852 5853 5854 5855 5856 5857 5857 5858 5859 5860 5861 5861 5861 5861 5862
5825 5825 5826 5828 5829 5830 5832 5833 5835 5837 5839 5840 5842 5844 5845 5846 5848 5848 5850 5851 5852 5854 5854 5855 5856 5858 5858 5858 5859 5860 5861 5861 5861
5823 5822 5823 5824 5825 5827 5828 5829 5831 5833 5835 5837 5838 5840 5842 5843 5844 5845 5846 5847 5849 5851 5852 5853 5854 5855 5856 5857 5857 5858 5859 5860 5860
5820 5820 5821 5822 5823 5823 5824 5826 5827 5829 5831 5833 5834 5836 5838 5839 5839 5841 5844 5845 5846 5847 5848 5849 5851 5852 5853 5854 5855 5856 5857 5858 5858
5816 5818 5819 5820 5821 5821 5821 5823 5824 5825 5827 5829 5830 5831 5833 5834 5837 5837 5840 5842 5843 5844 5844 5846 5847 5848 5849 5851 5853 5853 5854 5855 5855
5815 5816 5816 5817 5818 5819 5820 5820 5820 5821 5822 5824 5826 5827 5828 5829 5832 5832 5836 5837 5838 5840 5841 5842 5843 5844 5846 5847 5848 5849 5851 5852 5853
5811 5812 5813 5814 5814 5815 5816 5816 5817 5818 5818 5819 5820 5821 5823 5824 5826 5827 5829 5832 5833 5834 5836 5838 5838 5840 5841 5842 5844 5844 5846 5847 5848
5807 5808 5809 5810 5810 5811 5812 5812 5813 5813 5814 5815 5815 5816 5817 5818 5820 5822 5823 5824 5827 5828 5829 5830 5831 5833 5833 5835 5838 5840 5841 5842 5842
5801 5802 5803 5804 5805 5806 5807 5807 5808 5809 5809 5810 5810 5811 5811 5812 5813 5815 5817 5819 5820 5821 5822 5823 5824 5824 5827 5829 5830 5830 5832 5834 5836
5795 5796 5797 5798 5798 5799 5800 5801 5802 5802 5803 5804 5805 5805 5805 5806 5807 5808 5810 5811 5813 5814 5815 5816 5817 5817 5821 5819 5822 5823 5825 5826 5828
5787 5788 5789 5790 5791 5791 5792 5793 5794 5795 5795 5796 5797 5798 5799 5799 5800 5801 5802 5803 5804 5805 5807 5809 5809 5810 5811 5812 5812 5815 5817 5816 5819
5778 5779 5780 5781 5782 5782 5783 5784 5785 5785 5786 5787 5788 5789 5790 5791 5792 5793 5794 5795 5795 5797 5798 5799 5800 5802 5803 5803 5804 5806 5807 5807 5811
5768 5769 5770 5771 5771 5772 5773 5774 5775 5775 5775 5776 5777 5779 5780 5780 5782 5783 5785 5785 5785 5787 5788 5789 5790 5792 5793 5794 5797 5798 5798 5799 5802
5756 5757 5758 5758 5759 5760 5761 5762 5762 5763 5763 5764 5765 5766 5767 5768 5769 5771 5773 5774 5775 5775 5777 5778 5779 5781 5782 5784 5785 5788 5790 5791 5792
5743 5744 5744 5745 5745 5746 5746 5747 5748 5749 5750 5751 5751 5752 5753 5755 5755 5756 5758 5760 5762 5763 5765 5765 5766 5768 5771 5771 5774 5777 5777 5779 5781
5728 5729 5729 5730 5730 5731 5731 5732 5733 5734 5735 5735 5736 5737 5737 5740 5740 5741 5742 5744 5746 5748 5750 5752 5753 5754 5756 5758 5763 5763 5765 5766 5769
5712 5712 5712 5713 5713 5714 5714 5715 5716 5717 5719 5719 5719 5720 5720 5722 5723 5723 5724 5727 5728 5731 5733 5735 5738 5739 5741 5743 5748 5749 5751 5753 5755
5696 5695 5695 5695 5696 5696 5696 5697 5698 5698 5699 5701 5702 5701 5702 5703 5706 5707 5706 5708 5709 5712 5714 5715 5718 5722 5724 5727 5731 5731 5735 5738 5741
5678 5678 5678 5678 5678 5678 5678 5679 5679 5679 5679 5680 5681 5681 5682 5683 5685 5688 5689 5689 5690 5691 5693 5695 5697 5701 5704 5708 5712 5714 5717 5720 5723